Overview Statistics Trail Chart Weather Telemetry Raw packets
 

This is the latest recevied weather packets stored in our database for station/object SQ9SMC-13. If no packets are shown the sender has not sent any weather packets the latest 10 day(s).

<< 44 45 46 47 48 49 50 >>
Time Temp. Humidity Pressure Rain* Wind** Luminosity Snow
1777398005 8.89° C 38% 1025 hPa 0 mm - 10 W/m² -
1777397703 8.89° C 38% 1025 hPa 0 mm - 12 W/m² -
1777397404 8.89° C 37% 1024.8 hPa 0 mm - 14 W/m² -
1777397103 9.44° C 36% 1024.9 hPa 0 mm - 16 W/m² -
1777396804 10° C 36% 1024.9 hPa 0 mm - 19 W/m² -
1777396509 10° C 35% 1024.9 hPa 0 mm - 22 W/m² -
1777396202 10° C 36% 1024.8 hPa 0 mm - 24 W/m² -
1777395904 10° C 34% 1024.7 hPa 0 mm - 26 W/m² -
1777395606 10° C 34% 1024.8 hPa 0 mm - 29 W/m² -
1777395303 10.56° C 35% 1024.8 hPa 0 mm - 28 W/m² -
1777395003 10.56° C 34% 1024.8 hPa 0 mm - 33 W/m² -
1777394704 10.56° C 33% 1024.9 hPa 0 mm - 35 W/m² -
1777394405 11.11° C 33% 1024.8 hPa 0 mm - 40 W/m² -
1777394103 11.11° C 33% 1024.7 hPa 0 mm - 41 W/m² -
1777393803 11.11° C 33% 1024.8 hPa 0 mm - 53 W/m² -
1777393503 11.11° C 32% 1024.7 hPa 0 mm - 54 W/m² -
1777393202 11.11° C 32% 1024.8 hPa 0 mm - 58 W/m² -
1777392903 12.22° C 31% 1024.9 hPa 0 mm - 62 W/m² -
1777392605 11.67° C 31% 1024.8 hPa 0 mm - 98 W/m² -
1777392304 12.22° C 30% 1024.8 hPa 0 mm - 104 W/m² -
1777392004 11.67° C 30% 1024.9 hPa 0 mm - 124 W/m² -
1777391710 12.22° C 31% 1024.7 hPa 0 mm - 138 W/m² -
1777391404 12.78° C 31% 1025 hPa 0 mm - 148 W/m² -
1777391102 12.22° C 30% 1024.9 hPa 0 mm - 158 W/m² -
1777390804 12.22° C 29% 1024.8 hPa 0 mm - 166 W/m² -

* Rain latest hour (hover to see other rain measurements)
** Current wind speed in m/s (hover to see current wind gust speed)